Погода в Негаге

Ангола     7°46′04″S   15°15′55″E
темп.,
°C
ветер,
м/с
пор.,
м/с
влажн.,
%
обл.,
%
осадки,
мм/ч
давл.,
гПа
погр.,
м
23 апреля, пт
пт2301:00+18в2595100 1.0 1013112
04:00+17вюв239589 0.1 101251
07:00+18в249698 2.0 1014134
10:00+22в1384100 3.7 1014165
13:00+21сз118799 6.1 101314
16:00+20ссв1191100 0.8 1011102
19:00+19ююз2495100 1.6 101386
22:00+18ююв1298100 0.0 101334
24 апреля, сб
сб2401:00+18вюв2292100 0.0 101245
04:00+17вюв119298 0.3 101211
07:00+18вюв2390100 0.3 101368
10:00+24вюв3669100 0.0 1013647
13:00+24всв347985 2.4 1011617
16:00+23ссв128499 6.2 1010142
19:00+19св2293100 9.1 101352
22:00+19св2395100 0.1 101591
25 апреля, вс
вс2501:00+18св119772 0.1 101442
04:00+17вюв2396100 0.0 101256
07:00+18вюв269344 0.0 1014175
10:00+23вюв2475100 0.3 1014572
13:00+25вюв236565 2.3 1011985
16:00+23всв1184100 2.1 101032
19:00+20в1187100 3.7 101212
22:00+19юв1191100 1.9 101411
26 апреля, пн
пн2601:00+18в119268 1.9 101214
04:00+17юв119290 0.0 101211
07:00+19в229072 0.0 101463
10:00+25всв236890 0.0 1014803
13:00+25всв2372100 4.2 10111034
16:00+23вюв1286100 5.8 101062
19:00+19юв2291100 7.6 101223
22:00+19в2293100 0.0 101427
27 апреля, вт
вт2701:00+18всв229266 0.0 101226
04:00+18всв119091 0.0 101114
07:00+19всв119061 0.0 101343
10:00+24с237226 2.5 1013380
13:00+24всв2372100 5.8 1011464
16:00+24в237720 2.6 1009301
19:00+19в118896 3.4 101211
22:00+18в0190100 0.0 101311